tititudorancea.com
Station Historical Data
Daily Summary for January 9, 2018 Units:  Metric    English   Both
« Previous Day
Next Day »
Daily Weekly Monthly Yearly Custom
  High: Low: Average:
Temperature: -17.8 °C 8.9 °C 17 °C
Dew Point: -17.8 °C 4.7 °C 7.4 °C
Humidity: Humidity % 34 % 56 %
Wind Speed: 0 km/h 0 km/h 13 km/h
Wind Gust: 0 km/h - -
Wind:- - SSW
Pressure: 0 hPa 1011.4 hPa -
Precipitation: 0 mm    
Historical Graphs
 
 
Ararat weather Find more about Weather in Ararat, AU


 



 


Tabular Data for January 9, 2018
Time Temperature Dew Point Pressure Wind Wind Speed Wind Gust Humidity Rainfall Rate (Hourly)
-17.8 °C -17.8 °C 0 hPa Calm     Humidity % 0 mm
00:05 13.7 °C 9.5 °C 1011.4 hPa South 10 km/h 16.1 km/h 76 % 0 mm
00:06 13.6 °C 9.7 °C 1011.4 hPa North 9.8 km/h 16.7 km/h 77 % 0 mm
00:11 13.6 °C 9.6 °C 1011.4 hPa North 11.9 km/h 14.8 km/h 77 % 0 mm
00:15 13.4 °C 9.7 °C 1011.4 hPa North 9 km/h 18.5 km/h 78 % 0 mm
00:20 13.4 °C 9.6 °C 1011.4 hPa SSW 8.5 km/h 13 km/h 78 % 0 mm
00:26 13.2 °C 9.7 °C 1011.4 hPa South 7.1 km/h 11.1 km/h 79 % 0 mm
00:30 13.2 °C 9.6 °C 1011.4 hPa South 9.3 km/h 14.8 km/h 79 % 0 mm
00:35 13.1 °C 9.5 °C 1011.4 hPa North 7.4 km/h 9.3 km/h 79 % 0 mm
00:41 12.9 °C 9.5 °C 1011.4 hPa North 7.7 km/h 11.1 km/h 80 % 0 mm
00:42 12.9 °C 9.5 °C 1011.4 hPa South 8.5 km/h 14.8 km/h 80 % 0 mm
00:48 12.8 °C 9.4 °C 1011.4 hPa North 6.1 km/h 9.7 km/h 80 % 0 mm
00:49 12.7 °C 9.3 °C 1011.7 hPa North 4.8 km/h 11.1 km/h 80 % 0 mm
00:54 12.7 °C 9.5 °C 1011.7 hPa North 9.5 km/h 14.8 km/h 81 % 0 mm
00:59 12.6 °C 9.4 °C 1011.7 hPa South 4.8 km/h 11.1 km/h 81 % 0 mm
01:04 12.5 °C 9.3 °C 1011.7 hPa North 2.6 km/h 7.4 km/h 81 % 0 mm
01:10 12.4 °C 9.2 °C 1011.7 hPa South 5.5 km/h 9.3 km/h 81 % 0 mm
01:15 12.3 °C 9.3 °C 1011.7 hPa South 7.2 km/h 11.1 km/h 82 % 0 mm
01:21 12.2 °C 9.2 °C 1011.7 hPa South 7.4 km/h 13 km/h 82 % 0 mm
01:26 12.2 °C 9.4 °C 1011.7 hPa South 9.5 km/h 13 km/h 83 % 0 mm
01:31 12.1 °C 9.3 °C 1011.7 hPa South 6.1 km/h 11.1 km/h 83 % 0 mm
01:32 12.1 °C 9.3 °C 1011.7 hPa North 5.3 km/h 11.1 km/h 83 % 0 mm
01:38 12.1 °C 9.3 °C 1012.1 hPa North 3.7 km/h 7.4 km/h 83 % 0 mm
01:40 12.1 °C 9.3 °C 1012.1 hPa North 6.6 km/h 9.3 km/h 83 % 0 mm
01:46 12.1 °C 9.4 °C 1012.1 hPa South 7.4 km/h 11.1 km/h 84 % 0 mm
01:53 12.1 °C 9.5 °C 1012.1 hPa North 5.8 km/h 11.1 km/h 84 % 0 mm
01:59 12.1 °C 9.5 °C 1012.1 hPa North 7.7 km/h 8 km/h 84 % 0 mm
02:05 12.1 °C 9.5 °C 1012.1 hPa South 7.2 km/h 9.3 km/h 84 % 0 mm
02:11 12.1 °C 9.4 °C 1012.1 hPa South 5.5 km/h 9.7 km/h 84 % 0 mm
02:16 12.1 °C 9.5 °C 1012.1 hPa North 5.8 km/h 14.8 km/h 84 % 0 mm
02:22 12.1 °C 9.7 °C 1011.7 hPa South 7.9 km/h 9.3 km/h 85 % 0 mm
02:25 12.2 °C 9.7 °C 1011.7 hPa South 3.5 km/h 11.1 km/h 85 % 0 mm
02:31 12.1 °C 9.7 °C 1011.7 hPa North 8.9 km/h 11.3 km/h 85 % 0 mm
02:34 12.1 °C 9.5 °C 1011.7 hPa South 5.6 km/h 11.1 km/h 84 % 0 mm
02:40 12 °C 9.6 °C 1011.7 hPa North 7.4 km/h 9.7 km/h 85 % 0 mm
02:46 11.9 °C 9.5 °C 1011.7 hPa South 3.7 km/h 7.4 km/h 85 % 0 mm
02:52 11.8 °C 9.3 °C 1011.7 hPa South 5.5 km/h 6.4 km/h 85 % 0 mm
02:58 11.7 °C 9.2 °C 1012.1 hPa South 5.5 km/h 7.4 km/h 85 % 0 mm
03:03 11.6 °C 9.3 °C 1012.1 hPa South 8.9 km/h 9.3 km/h 86 % 0 mm
03:10 11.5 °C 9.2 °C 1012.1 hPa North 6 km/h 9.3 km/h 86 % 0 mm
03:15 11.4 °C 9.2 °C 1012.1 hPa South 6.1 km/h 11.1 km/h 86 % 0 mm
03:21 11.3 °C 9.1 °C 1012.1 hPa South 4.2 km/h 7.4 km/h 86 % 0 mm
03:25 11.2 °C 8.9 °C 1012.1 hPa South 3.1 km/h 5.6 km/h 86 % 0 mm
03:30 11.1 °C 8.8 °C 1012.1 hPa North 1 km/h 3.7 km/h 86 % 0 mm
03:31 10.9 °C 8.7 °C 1012.1 hPa South 2.1 km/h 3.2 km/h 86 % 0 mm
03:33 10.9 °C 8.6 °C 1012.1 hPa South 3.2 km/h 5.6 km/h 86 % 0 mm
03:40 10.6 °C 8.5 °C 1012.1 hPa South 0.2 km/h 1.9 km/h 87 % 0 mm
03:45 10.3 °C 8.3 °C 1012.1 hPa North 1.4 km/h 1.9 km/h 87 % 0 mm
03:48 10.3 °C 8.2 °C 1012.1 hPa South 1.9 km/h 5.6 km/h 87 % 0 mm
03:53 10.1 °C 8.2 °C 1012.1 hPa North 2.1 km/h 5.6 km/h 88 % 0 mm
03:57 10.1 °C 8.2 °C 1012.1 hPa South 1.1 km/h 3.7 km/h 88 % 0 mm
04:02 9.9 °C 8.2 °C 1012.1 hPa Calm     89 % 0 mm
04:06 9.9 °C 8.2 °C 1012.1 hPa North 0.6 km/h 1.9 km/h 89 % 0 mm
04:08 9.9 °C 8.2 °C 1012.1 hPa Calm   1.9 km/h 89 % 0 mm
04:13 9.7 °C 8 °C 1012.1 hPa South 1.1 km/h 3.7 km/h 89 % 0 mm
04:18 9.7 °C 7.9 °C 1012.1 hPa South 0.3 km/h 1.9 km/h 89 % 0 mm
04:23 9.6 °C 8.1 °C 1012.1 hPa South 1.1 km/h 1.9 km/h 90 % 0 mm
04:26 9.6 °C 8 °C 1012.1 hPa South 3.1 km/h 3.7 km/h 90 % 0 mm
04:31 9.5 °C 7.9 °C 1012.1 hPa South 1.4 km/h 3.7 km/h 90 % 0 mm
04:35 9.5 °C 7.9 °C 1012.4 hPa North 1.8 km/h 3.2 km/h 90 % 0 mm
04:40 9.4 °C 7.9 °C 1012.4 hPa South 1.9 km/h 3.7 km/h 90 % 0 mm
04:45 9.4 °C 8.1 °C 1012.4 hPa North 2.1 km/h 3.7 km/h 91 % 0 mm
04:50 9.4 °C 8.1 °C 1012.4 hPa Calm   3.7 km/h 91 % 0 mm
04:52 9.4 °C 8.1 °C 1012.4 hPa North 0.3 km/h 3.2 km/h 91 % 0 mm
04:57 9.5 °C 8.1 °C 1012.4 hPa North 1.6 km/h 3.7 km/h 91 % 0 mm
05:02 9.4 °C 8.1 °C 1012.4 hPa North 1.9 km/h 3.7 km/h 91 % 0 mm
05:05 9.4 °C 8 °C 1012.4 hPa South 2.3 km/h 3.7 km/h 91 % 0 mm
05:06 9.4 °C 8 °C 1012.4 hPa South 2.6 km/h 5.6 km/h 91 % 0 mm
05:11 9.3 °C 7.9 °C 1012.8 hPa South 2.4 km/h 3.7 km/h 91 % 0 mm
05:21 9.2 °C 7.8 °C 1012.8 hPa North 1.8 km/h 3.7 km/h 91 % 0 mm
05:26 9.2 °C 7.9 °C 1012.8 hPa North 1.3 km/h 3.7 km/h 92 % 0 mm
05:29 9.1 °C 7.9 °C 1012.8 hPa South 0.8 km/h 3.7 km/h 92 % 0 mm
05:34 9.1 °C 7.9 °C 1012.8 hPa Calm     92 % 0 mm
05:39 9 °C 7.8 °C 1012.8 hPa Calm   1.9 km/h 92 % 0 mm
05:43 8.9 °C 7.7 °C 1013.1 hPa Calm     92 % 0 mm
05:44 8.9 °C 7.7 °C 1013.1 hPa North 0.8 km/h 1.9 km/h 92 % 0 mm
05:49 8.9 °C 7.7 °C 1013.1 hPa Calm     92 % 0 mm
05:52 8.9 °C 7.7 °C 1013.1 hPa North 1.6 km/h 3.7 km/h 92 % 0 mm
05:55 8.9 °C 7.7 °C 1013.1 hPa South 0.5 km/h 1.9 km/h 92 % 0 mm
06:00 8.9 °C 7.7 °C 1013.1 hPa South 2.9 km/h 5.6 km/h 92 % 0 mm
06:05 9.1 °C 8.1 °C 1013.1 hPa North 4.3 km/h 5.6 km/h 93 % 0 mm
06:10 9.4 °C 8.5 °C 1013.1 hPa South 2.3 km/h 5.6 km/h 94 % 0 mm
06:15 9.4 °C 8.4 °C 1013.1 hPa North 3.2 km/h 5.6 km/h 93 % 0 mm
06:19 9.4 °C 8.3 °C 1013.1 hPa South 2.3 km/h 5.6 km/h 93 % 0 mm
06:24 9.4 °C 8.3 °C 1013.1 hPa North 0.8 km/h 5.6 km/h 93 % 0 mm
06:29 9.4 °C 8.3 °C 1013.1 hPa North 5.1 km/h 6.4 km/h 93 % 0 mm
06:33 9.4 °C 8.4 °C 1013.1 hPa South 3.9 km/h 6.4 km/h 93 % 0 mm
06:38 9.5 °C 8.4 °C 1013.1 hPa South 5.5 km/h 7.4 km/h 93 % 0 mm
06:43 9.7 °C 8.7 °C 1013.1 hPa South 7.2 km/h 7.4 km/h 94 % 0 mm
06:49 9.9 °C 8.9 °C 1013.1 hPa South 3.1 km/h 5.6 km/h 94 % 0 mm
06:51 10 °C 9.1 °C 1013.1 hPa South 3.1 km/h 5.6 km/h 94 % 0 mm
06:56 10.2 °C 9.2 °C 1013.1 hPa South 2.6 km/h 5.6 km/h 94 % 0 mm
06:57 10.2 °C 9.3 °C 1013.4 hPa South 3.4 km/h 5.6 km/h 94 % 0 mm
07:02 10.4 °C 9.5 °C 1013.4 hPa North 4.7 km/h 7.4 km/h 94 % 0 mm
07:08 10.7 °C 9.7 °C 1013.4 hPa South 6.8 km/h 8 km/h 94 % 0 mm
07:13 10.8 °C 9.8 °C 1013.4 hPa South 6.4 km/h 8 km/h 94 % 0 mm
07:18 10.9 °C 10 °C 1013.4 hPa South 5.5 km/h 7.4 km/h 94 % 0 mm
07:30 11.4 °C 10.3 °C 1013.4 hPa South 6.8 km/h 9.3 km/h 93 % 0 mm
07:39 11.8 °C 10.5 °C 1013.8 hPa South 8.5 km/h 9.7 km/h 92 % 0 mm
07:41 11.9 °C 10.6 °C 1013.8 hPa South 8.4 km/h 11.3 km/h 92 % 0 mm
07:47 12.2 °C 10.9 °C 1013.8 hPa South 5.8 km/h 9.3 km/h 92 % 0 mm
07:53 12.8 °C 11.2 °C 1013.8 hPa North 7.4 km/h 9.3 km/h 90 % 0 mm
07:59 13.2 °C 11.4 °C 1013.8 hPa North 8.7 km/h 11.1 km/h 89 % 0 mm
08:11 13.8 °C 11.7 °C 1014.1 hPa South 6.4 km/h 11.3 km/h 87 % 0 mm
08:19 14.3 °C 11.6 °C 1014.1 hPa SSW 6.6 km/h 14.8 km/h 84 % 0 mm
08:25 14.5 °C 11.7 °C 1014.1 hPa SSW 11.7 km/h 18.5 km/h 83 % 0 mm
08:30 14.7 °C 11.7 °C 1014.1 hPa SSW 12.6 km/h 16.7 km/h 82 % 0 mm
08:31 14.8 °C 11.8 °C 1014.1 hPa SSW 11.6 km/h 16.7 km/h 82 % 0 mm
08:36 15.3 °C 11.8 °C 1014.4 hPa SW 8.9 km/h 22.2 km/h 80 % 0 mm
08:41 15.5 °C 11.9 °C 1014.1 hPa SSW 11.7 km/h 20.9 km/h 79 % 0 mm
08:47 15.9 °C 12.1 °C 1014.4 hPa SW 9.5 km/h 29.6 km/h 78 % 0 mm
08:52 16.2 °C 11.8 °C 1014.4 hPa SSW 13.2 km/h 18.5 km/h 75 % 0 mm
08:59 16.3 °C 11.6 °C 1014.4 hPa South 21.2 km/h 31.5 km/h 74 % 0 mm
09:05 16.6 °C 11.7 °C 1014.4 hPa SW 12.2 km/h 20.4 km/h 73 % 0 mm
09:07 16.6 °C 11.7 °C 1014.4 hPa WSW 13.7 km/h 29 km/h 73 % 0 mm
09:12 16.9 °C 11.2 °C 1014.4 hPa SW 17.7 km/h 27.8 km/h 69 % 0 mm
09:18 16.9 °C 11.2 °C 1014.4 hPa SSW 24.8 km/h 31.5 km/h 69 % 0 mm
09:22 16.8 °C 11.1 °C 1014.8 hPa SSW 22.4 km/h 29.6 km/h 69 % 0 mm
09:23 16.8 °C 11.1 °C 1014.8 hPa SSW 22.9 km/h 29.6 km/h 69 % 0 mm
09:29 16.9 °C 11.2 °C 1014.8 hPa SSW 17.1 km/h 22.2 km/h 69 % 0 mm
09:34 17.1 °C 11.2 °C 1014.8 hPa SSW 20.8 km/h 31.5 km/h 68 % 0 mm
09:39 17 °C 10.6 °C 1014.8 hPa SSW 12.6 km/h 18.5 km/h 66 % 0 mm
09:45 17.2 °C 11 °C 1014.8 hPa WSW 19 km/h 29.6 km/h 67 % 0 mm
09:52 17 °C 10.4 °C 1014.8 hPa SW 18.8 km/h 29.6 km/h 65 % 0 mm
09:53 16.9 °C 10.5 °C 1014.8 hPa SSW 15.9 km/h 24.1 km/h 66 % 0 mm
09:54 16.8 °C 10.4 °C 1014.8 hPa SW 15.6 km/h 24.1 km/h 66 % 0 mm
09:55 16.8 °C 10.4 °C 1014.8 hPa SSW 19.3 km/h 29.6 km/h 66 % 0 mm
09:59 16.9 °C 10.3 °C 1014.8 hPa SW 13.7 km/h 18.5 km/h 65 % 0 mm
10:01 16.9 °C 10.1 °C 1015.1 hPa West 15.3 km/h 25.7 km/h 64 % 0 mm
10:02 16.9 °C 10.1 °C 1015.1 hPa SW 13.4 km/h 25.9 km/h 64 % 0 mm
10:03 17 °C 10.4 °C 1014.8 hPa WSW 14.6 km/h 24.1 km/h 65 % 0 mm
10:04 17.1 °C 10.2 °C 1015.1 hPa SSW 13.2 km/h 24.1 km/h 64 % 0 mm
10:07 17.4 °C 10.1 °C 1015.1 hPa SSW 18.3 km/h 33.8 km/h 62 % 0 mm
10:08 17.6 °C 9.5 °C 1015.1 hPa SSW 24.1 km/h 40.7 km/h 59 % 0 mm
10:09 17.6 °C 9.5 °C 1015.1 hPa SW 20.9 km/h 40.7 km/h 59 % 0 mm
10:13 17.6 °C 9.7 °C 1015.1 hPa SW 16.6 km/h 25.7 km/h 60 % 0 mm
10:14 17.5 °C 9.7 °C 1015.1 hPa SSW 19.6 km/h 20.4 km/h 60 % 0 mm
10:20 17.2 °C 10.1 °C 1015.1 hPa SSW 15.6 km/h 31.5 km/h 63 % 0 mm
10:22 17.1 °C 9.9 °C 1015.1 hPa South 20.9 km/h 33.3 km/h 63 % 0 mm
10:25 17.3 °C 10.2 °C 1015.1 hPa SSW 16.6 km/h 24.1 km/h 63 % 0 mm
10:26 17.4 °C 10.1 °C 1015.1 hPa SSW 15.9 km/h 27.8 km/h 62 % 0 mm
10:30 17.9 °C 10.3 °C 1015.1 hPa South 17.1 km/h 24.1 km/h 61 % 0 mm
10:36 18 °C 10.4 °C 1015.1 hPa SW 14.8 km/h 27.8 km/h 61 % 0 mm
10:37 18.1 °C 10.4 °C 1015.1 hPa SSW 12.9 km/h 18.5 km/h 61 % 0 mm
10:38 18.1 °C 10.4 °C 1015.1 hPa South 12.7 km/h 25.9 km/h 61 % 0 mm
10:39 18.1 °C 10.4 °C 1015.1 hPa SW 15.6 km/h 27.8 km/h 61 % 0 mm
10:43 17.9 °C 10.7 °C 1015.1 hPa SW 16.3 km/h 24.1 km/h 63 % 0 mm
10:44 17.9 °C 10.7 °C 1015.1 hPa WSW 17.4 km/h 24.1 km/h 63 % 0 mm
10:46 18 °C 10.6 °C 1015.1 hPa SW 16.1 km/h 20.4 km/h 62 % 0 mm
10:51 18.3 °C 10.6 °C 1015.1 hPa South 15.3 km/h 24.1 km/h 61 % 0 mm
10:54 18.6 °C 10.2 °C 1015.1 hPa SSW 23.8 km/h 37 km/h 58 % 0 mm
10:55 18.5 °C 10.1 °C 1015.1 hPa South 19.5 km/h 33.3 km/h 58 % 0 mm
10:57 18.4 °C 10.3 °C 1015.1 hPa SSW 17.4 km/h 20.4 km/h 59 % 0 mm
11:02 18.1 °C 10.2 °C 1015.1 hPa WSW 17.1 km/h 24.1 km/h 60 % 0 mm
11:03 18.1 °C 10.2 °C 1015.1 hPa SW 18.2 km/h 25.9 km/h 60 % 0 mm
11:07 18.2 °C 10.3 °C 1015.1 hPa SSW 20.3 km/h 24.1 km/h 60 % 0 mm
11:10 18.1 °C 9.9 °C 1015.1 hPa WSW 16.6 km/h 22.2 km/h 59 % 0 mm
11:11 18.1 °C 9.9 °C 1015.1 hPa SSW 11.7 km/h 22.2 km/h 59 % 0 mm
11:12 18.1 °C 9.9 °C 1015.1 hPa SW 11.3 km/h 16.7 km/h 59 % 0 mm
11:13 18.2 °C 10.1 °C 1015.1 hPa SW 17.4 km/h 19.3 km/h 59 % 0 mm
11:14 18.4 °C 10 °C 1015.1 hPa SW 21.6 km/h 31.5 km/h 58 % 0 mm
11:15 18.4 °C 10 °C 1015.1 hPa SW 20 km/h 31.5 km/h 58 % 0 mm
11:16 18.7 °C 10.2 °C 1015.1 hPa SSW 13.5 km/h 29.6 km/h 58 % 0 mm
11:17 18.8 °C 10.1 °C 1015.1 hPa SSW 14.5 km/h 18.5 km/h 57 % 0 mm
11:19 19 °C 9.8 °C 1015.1 hPa SW 24.1 km/h 29 km/h 55 % 0 mm
11:20 18.9 °C 9.7 °C 1015.1 hPa SW 24.3 km/h 27.8 km/h 55 % 0 mm
11:23 18.6 °C 9.7 °C 1015.1 hPa SSW 17.1 km/h 35.4 km/h 56 % 0 mm
11:26 18.6 °C 10.2 °C 1015.1 hPa West 19 km/h 25.9 km/h 58 % 0 mm
11:28 18.9 °C 10.2 °C 1015.1 hPa SW 15.4 km/h 30.6 km/h 57 % 0 mm
11:30 18.7 °C 10 °C 1015.1 hPa SW 21.9 km/h 31.5 km/h 57 % 0 mm
11:31 18.6 °C 10.2 °C 1015.1 hPa North 16.3 km/h 31.5 km/h 58 % 0 mm
11:32 18.4 °C 10.2 °C 1015.1 hPa SW 19.5 km/h 25.9 km/h 59 % 0 mm
11:35 18.1 °C 10.7 °C 1015.1 hPa SW 12.4 km/h 27.8 km/h 62 % 0 mm
11:37 17.9 °C 11.1 °C 1015.1 hPa South 14.5 km/h 27.8 km/h 64 % 0 mm
11:38 17.9 °C 11.1 °C 1015.1 hPa SSW 14.3 km/h 27.8 km/h 64 % 0 mm
11:39 18 °C 10.8 °C 1015.1 hPa SSW 25.1 km/h 35.2 km/h 63 % 0 mm
11:45 18.3 °C 10.6 °C 1015.1 hPa SSW 22.2 km/h 31.5 km/h 61 % 0 mm
11:47 18.5 °C 10.6 °C 1015.1 hPa SSE 14.2 km/h 33.3 km/h 60 % 0 mm
11:48 18.6 °C 10.4 °C 1015.1 hPa South 22.4 km/h 31.5 km/h 59 % 0 mm
11:57 19.1 °C 10.4 °C 1015.1 hPa SW 22.5 km/h 31.5 km/h 57 % 0 mm
11:58 19.1 °C 10.4 °C 1015.1 hPa SW 22.7 km/h 31.5 km/h 57 % 0 mm
11:59 19.2 °C 10.2 °C 1015.1 hPa North 11.4 km/h 24.1 km/h 56 % 0 mm
12:00 19.2 °C 10.2 °C 1015.1 hPa SW 12.4 km/h 24.1 km/h 56 % 0 mm
12:01 19.2 °C 9.9 °C 1015.1 hPa SSW 15.6 km/h 27.4 km/h 55 % 0 mm
12:02 19.2 °C 9.9 °C 1015.1 hPa North 13.2 km/h 25.9 km/h 55 % 0 mm
12:03 19.3 °C 10 °C 1015.1 hPa SSW 12.1 km/h 16.7 km/h 55 % 0 mm
12:04 19.4 °C 10.1 °C 1015.1 hPa SW 18.2 km/h 27.8 km/h 55 % 0 mm
12:06 19.4 °C 9.8 °C 1015.1 hPa SSW 17.7 km/h 27.8 km/h 54 % 0 mm
12:07 19.4 °C 10.2 °C 1015.1 hPa SSW 15.8 km/h 25.7 km/h 55 % 0 mm
12:08 19.5 °C 10.2 °C 1015.1 hPa SSW 16.7 km/h 22.5 km/h 55 % 0 mm
12:11 19.7 °C 10.1 °C 1015.1 hPa SW 23.8 km/h 29.6 km/h 54 % 0 mm
12:13 19.4 °C 10.4 °C 1015.1 hPa SSW 23.2 km/h 31.5 km/h 56 % 0 mm
12:14 19.2 °C 10.5 °C 1015.1 hPa North 18.3 km/h 27.8 km/h 57 % 0 mm
12:17 19 °C 10 °C 1015.1 hPa SSW 10 km/h 16.7 km/h 56 % 0 mm
12:18 18.9 °C 10.2 °C 1015.1 hPa SSW 18.5 km/h 24.1 km/h 57 % 0 mm
12:19 18.9 °C 10.2 °C 1015.1 hPa SSW 18.7 km/h 24.1 km/h 57 % 0 mm
12:20 18.8 °C 9.6 °C 1015.1 hPa SW 18.2 km/h 24.1 km/h 55 % 0 mm
12:22 18.7 °C 9.7 °C 1015.1 hPa North 12.6 km/h 17.7 km/h 56 % 0 mm
12:23 18.6 °C 9.9 °C 1015.1 hPa SW 17.5 km/h 29.6 km/h 57 % 0 mm
12:26 18.5 °C 9.8 °C 1015.1 hPa SSW 16.6 km/h 30.6 km/h 57 % 0 mm
12:29 18.5 °C 9.6 °C 1015.1 hPa SW 18.5 km/h 27.8 km/h 56 % 0 mm
12:31 18.4 °C 8.9 °C 1015.1 hPa SW 16.4 km/h 27.8 km/h 54 % 0 mm
12:33 18.7 °C 9.2 °C 1015.1 hPa WSW 12.9 km/h 18.5 km/h 54 % 0 mm
12:34 18.8 °C 9.3 °C 1015.1 hPa SW 13.4 km/h 18.5 km/h 54 % 0 mm
12:35 19.1 °C 8.9 °C 1015.1 hPa SSW 15.3 km/h 22.2 km/h 52 % 0 mm
12:37 19.1 °C 9 °C 1015.1 hPa South 15.1 km/h 19.3 km/h 52 % 0 mm
12:38 19.2 °C 9.4 °C 1015.1 hPa SW 15.6 km/h 27.4 km/h 53 % 0 mm
12:43 19.3 °C 8.9 °C 1015.5 hPa SSW 22.2 km/h 27.8 km/h 51 % 0 mm
12:44 19.2 °C 8.8 °C 1015.5 hPa SSW 21.7 km/h 27.8 km/h 51 % 0 mm
12:45 18.9 °C 8.9 °C 1015.1 hPa SSE 17.2 km/h 27.8 km/h 52 % 0 mm
12:47 19 °C 8.9 °C 1015.1 hPa SSE 12.4 km/h 27.8 km/h 52 % 0 mm
12:51 19.4 °C 8.7 °C 1015.1 hPa South 12.7 km/h 20.4 km/h 50 % 0 mm
12:52 19.4 °C 8.7 °C 1015.1 hPa SSW 17.7 km/h 22.5 km/h 50 % 0 mm
12:54 19.3 °C 8.9 °C 1015.1 hPa SSW 15.9 km/h 24.1 km/h 51 % 0 mm
12:55 19.3 °C 8.9 °C 1015.1 hPa SW 14.5 km/h 22.2 km/h 51 % 0 mm
12:56 19.3 °C 8.9 °C 1015.5 hPa SSW 16.4 km/h 27.8 km/h 51 % 0 mm
12:58 19.3 °C 8.9 °C 1015.1 hPa SW 16.6 km/h 20.4 km/h 51 % 0 mm
13:00 19.4 °C 9 °C 1015.1 hPa South 8.5 km/h 19.3 km/h 51 % 0 mm
13:04 19.6 °C 8.6 °C 1015.1 hPa South 11.1 km/h 14.8 km/h 49 % 0 mm
13:09 19.6 °C 8.9 °C 1015.1 hPa SW 21.1 km/h 25.9 km/h 50 % 0 mm
13:11 19.6 °C 8.8 °C 1015.1 hPa SSW 15.9 km/h 29.6 km/h 50 % 0 mm
13:13 19.4 °C 8.7 °C 1015.1 hPa SSE 16.7 km/h 18.5 km/h 50 % 0 mm
13:19 19.9 °C 8.9 °C 1015.1 hPa South 11.7 km/h 19.3 km/h 49 % 0 mm
13:20 20.1 °C 8.7 °C 1015.1 hPa SSW 16.1 km/h 25.9 km/h 48 % 0 mm
13:21 20.1 °C 8.8 °C 1015.1 hPa South 14.2 km/h 20.9 km/h 48 % 0 mm
13:22 20.2 °C 8.8 °C 1015.1 hPa SSE 17.1 km/h 22.2 km/h 48 % 0 mm
13:23 20.2 °C 8.6 °C 1015.1 hPa SSW 14.6 km/h 25.9 km/h 47 % 0 mm
13:27 19.8 °C 7.9 °C 1015.1 hPa SW 19.8 km/h 25.9 km/h 46 % 0 mm
13:28 19.9 °C 8.2 °C 1015.1 hPa SSW 15.1 km/h 25.9 km/h 47 % 0 mm
13:29 19.9 °C 7.9 °C 1015.1 hPa WSW 11.1 km/h 14.8 km/h 46 % 0 mm
13:30 20.1 °C 8.1 °C 1015.1 hPa SW 9.7 km/h 18.5 km/h 46 % 0 mm
13:31 20.2 °C 8.2 °C 1015.1 hPa SSE 4.7 km/h 14.5 km/h 46 % 0 mm
13:32 20.3 °C 8.3 °C 1015.1 hPa SSW 11.3 km/h 22.5 km/h 46 % 0 mm
13:33 20.5 °C 7.8 °C 1015.1 hPa SW 15 km/h 25.9 km/h 44 % 0 mm
13:34 20.4 °C 7.8 °C 1015.1 hPa SW 12.1 km/h 18.5 km/h 44 % 0 mm
13:36 20.4 °C 8.1 °C 1015.5 hPa South 17.2 km/h 18.5 km/h 45 % 0 mm
13:37 20.3 °C 8 °C 1015.1 hPa SSE 13.8 km/h 22.2 km/h 45 % 0 mm
13:39 20.3 °C 8 °C 1015.1 hPa SSW 14.8 km/h 18.5 km/h 45 % 0 mm
13:42 20.4 °C 8.1 °C 1015.1 hPa SW 21.6 km/h 22.2 km/h 45 % 0 mm
13:43 20.4 °C 8.1 °C 1015.1 hPa SSW 21.9 km/h 30.6 km/h 45 % 0 mm
13:44 20.5 °C 7.8 °C 1015.1 hPa SSW 23.2 km/h 31.5 km/h 44 % 0 mm
13:49 20.7 °C 7.6 °C 1015.1 hPa SW 18.5 km/h 20.4 km/h 43 % 0 mm
13:51 20.7 °C 8 °C 1015.1 hPa SSE 9.7 km/h 19.3 km/h 44 % 0 mm
13:56 20.9 °C 7.6 °C 1015.5 hPa North 21.7 km/h 31.5 km/h 42 % 0 mm
13:57 20.9 °C 7.1 °C 1015.1 hPa WSW 21.9 km/h 27.8 km/h 41 % 0 mm
13:58 20.7 °C 6.9 °C 1015.5 hPa SW 24.9 km/h 31.5 km/h 41 % 0 mm
13:59 20.6 °C 6.9 °C 1015.5 hPa SW 24.8 km/h 31.5 km/h 41 % 0 mm
14:00 20.6 °C 6.9 °C 1015.5 hPa SW 22.9 km/h 31.5 km/h 41 % 0 mm
14:01 20.6 °C 7.2 °C 1015.5 hPa SW 18 km/h 29.6 km/h 42 % 0 mm
14:02 20.7 °C 7.3 °C 1015.5 hPa WSW 20.4 km/h 29.6 km/h 42 % 0 mm
14:03 20.7 °C 6.9 °C 1015.5 hPa SSW 15.1 km/h 25.9 km/h 41 % 0 mm
14:04 20.6 °C 6.9 °C 1015.5 hPa SSW 16.1 km/h 18.5 km/h 41 % 0 mm
14:05 20.6 °C 7.2 °C 1015.5 hPa SSW 19.2 km/h 32.2 km/h 42 % 0 mm
14:06 20.7 °C 6.9 °C 1015.5 hPa SSW 24.6 km/h 29.6 km/h 41 % 0 mm
14:07 20.8 °C 7.1 °C 1015.5 hPa SSW 16.1 km/h 25.9 km/h 41 % 0 mm
14:08 20.8 °C 6.7 °C 1015.5 hPa South 15.9 km/h 25.9 km/h 40 % 0 mm
14:09 20.8 °C 6.7 °C 1015.1 hPa SSE 12.2 km/h 27.8 km/h 40 % 0 mm
14:10 20.8 °C 6.7 °C 1015.1 hPa South 15.6 km/h 25.9 km/h 40 % 0 mm
14:11 20.9 °C 6.8 °C 1015.5 hPa South 16.3 km/h 22.2 km/h 40 % 0 mm
14:13 20.9 °C 6.8 °C 1015.1 hPa SSE 15.8 km/h 24.1 km/h 40 % 0 mm
14:16 21 °C 6.9 °C 1015.5 hPa South 21.1 km/h 25.9 km/h 40 % 0 mm
14:17 20.9 °C 6.4 °C 1015.5 hPa SSW 20.1 km/h 29.6 km/h 39 % 0 mm
14:18 20.9 °C 6.4 °C 1015.5 hPa SW 22.4 km/h 29.6 km/h 39 % 0 mm
14:19 20.8 °C 6.3 °C 1015.1 hPa SW 20.3 km/h 27.8 km/h 39 % 0 mm
14:20 20.8 °C 6.3 °C 1015.1 hPa SSW 20.6 km/h 25.9 km/h 39 % 0 mm
14:21 20.7 °C 6.3 °C 1015.1 hPa SSW 20.9 km/h 25.9 km/h 39 % 0 mm
14:22 20.6 °C 6.6 °C 1015.1 hPa SSW 22 km/h 22.5 km/h 40 % 0 mm
14:23 20.7 °C 6.6 °C 1015.1 hPa SW 19.6 km/h 31.5 km/h 40 % 0 mm
14:24 20.8 °C 6.3 °C 1015.1 hPa SW 24.3 km/h 31.5 km/h 39 % 0 mm
14:25 20.8 °C 6.3 °C 1015.1 hPa SSW 22.7 km/h 29.6 km/h 39 % 0 mm
14:27 20.8 °C 6.3 °C 1015.1 hPa South 17.9 km/h 22.2 km/h 39 % 0 mm
14:28 20.8 °C 6.3 °C 1015.1 hPa South 17.2 km/h 22.2 km/h 39 % 0 mm
14:30 20.9 °C 6.8 °C 1015.1 hPa South 17.9 km/h 25.7 km/h 40 % 0 mm
14:33 21 °C 6.1 °C 1015.5 hPa SSE 20 km/h 31.5 km/h 38 % 0 mm
14:34 20.9 °C 6.1 °C 1015.5 hPa SSE 13.4 km/h 27.8 km/h 38 % 0 mm
14:35 20.9 °C 6.4 °C 1015.1 hPa SSW 19.2 km/h 31.5 km/h 39 % 0 mm
14:36 20.9 °C 6.8 °C 1015.1 hPa SW 18.2 km/h 27.4 km/h 40 % 0 mm
14:38 21 °C 6.5 °C 1015.5 hPa SSW 18.5 km/h 20.4 km/h 39 % 0 mm
14:39 21 °C 6.5 °C 1015.5 hPa South 19 km/h 24.1 km/h 39 % 0 mm
14:40 20.9 °C 6.4 °C 1015.1 hPa SW 18.5 km/h 33.3 km/h 39 % 0 mm
14:41 20.9 °C 6.4 °C 1015.1 hPa North 17.7 km/h 27.8 km/h 39 % 0 mm
14:44 21 °C 6.1 °C 1015.5 hPa SSW 25.4 km/h 30.6 km/h 38 % 0 mm
14:47 20.9 °C 6.1 °C 1015.5 hPa South 16.4 km/h 22.5 km/h 38 % 0 mm
14:48 20.8 °C 5.6 °C 1015.1 hPa SW 23.8 km/h 27.8 km/h 37 % 0 mm
14:49 20.8 °C 5.6 °C 1015.1 hPa WSW 24.6 km/h 35.2 km/h 37 % 0 mm
14:51 21 °C 6.5 °C 1015.5 hPa SSE 12.9 km/h 22.2 km/h 39 % 0 mm
14:52 21.1 °C 6.2 °C 1015.5 hPa South 13.8 km/h 22.2 km/h 38 % 0 mm
14:54 21.2 °C 5.9 °C 1015.5 hPa SSW 20.3 km/h 27.8 km/h 37 % 0 mm
14:55 21.2 °C 5.5 °C 1015.5 hPa South 18.3 km/h 24.1 km/h 36 % 0 mm
14:58 21.4 °C 6.1 °C 1015.1 hPa South 16.4 km/h 22.5 km/h 37 % 0 mm
15:01 21.4 °C 5.3 °C 1015.5 hPa South 13 km/h 35.2 km/h 35 % 0 mm
15:02 21.4 °C 5.3 °C 1015.5 hPa South 10 km/h 22.2 km/h 35 % 0 mm
15:03 21.6 °C 5.4 °C 1015.5 hPa SSE 15.9 km/h 22.5 km/h 35 % 0 mm
15:05 21.7 °C 5.6 °C 1015.5 hPa SSW 11.4 km/h 27.4 km/h 35 % 0 mm
15:06 21.8 °C 6.1 °C 1015.5 hPa SSW 23 km/h 29.6 km/h 36 % 0 mm
15:07 21.7 °C 5.6 °C 1015.5 hPa SW 23.5 km/h 33.3 km/h 35 % 0 mm
15:08 21.6 °C 5.5 °C 1015.5 hPa SSW 23.7 km/h 31.5 km/h 35 % 0 mm
15:09 21.6 °C 5.4 °C 1015.5 hPa SSW 16.3 km/h 25.7 km/h 35 % 0 mm
15:10 21.6 °C 5.4 °C 1015.5 hPa SSE 16.9 km/h 20.4 km/h 35 % 0 mm
15:11 21.6 °C 5.4 °C 1015.1 hPa South 15.1 km/h 22.2 km/h 35 % 0 mm
15:13 21.4 °C 5.3 °C 1015.5 hPa South 18.8 km/h 40.7 km/h 35 % 0 mm
15:14 21.4 °C 5.3 °C 1015.5 hPa SSW 17.5 km/h 25.9 km/h 35 % 0 mm
15:16 21.4 °C 4.9 °C 1015.5 hPa South 17.2 km/h 22.2 km/h 34 % 0 mm
15:17 21.4 °C 4.9 °C 1015.5 hPa South 17.9 km/h 27.8 km/h 34 % 0 mm
15:18 21.3 °C 4.8 °C 1015.5 hPa South 21.1 km/h 33.3 km/h 34 % 0 mm
15:20 21.2 °C 5.2 °C 1015.5 hPa South 17.4 km/h 22.2 km/h 35 % 0 mm
15:21 21.2 °C 5.5 °C 1015.5 hPa South 10.8 km/h 25.9 km/h 36 % 0 mm
15:23 21.3 °C 5.2 °C 1015.5 hPa SSE 20.4 km/h 35.2 km/h 35 % 0 mm
15:24 21.3 °C 5.6 °C 1015.5 hPa ESE 14.3 km/h 33.3 km/h 36 % 0 mm
15:25 21.3 °C 5.2 °C 1015.5 hPa SW 19.2 km/h 25.9 km/h 35 % 0 mm
15:26 21.2 °C 5.6 °C 1015.5 hPa SSW 20.9 km/h 27.8 km/h 36 % 0 mm
15:28 21.2 °C 5.6 °C 1015.5 hPa SSW 22.2 km/h 32.2 km/h 36 % 0 mm
15:29 21.1 °C 5.8 °C 1015.5 hPa SW 26.9 km/h 33.3 km/h 37 % 0 mm
15:32 21.1 °C 5.8 °C 1015.5 hPa SSW 18.7 km/h 25.9 km/h 37 % 0 mm
15:33 21.2 °C 5.9 °C 1015.5 hPa SE 14.8 km/h 22.2 km/h 37 % 0 mm
15:36 21.3 °C 6.4 °C 1015.5 hPa SSW 13.2 km/h 18.5 km/h 38 % 0 mm
15:38 21.5 °C 5.8 °C 1015.5 hPa SSE 18.8 km/h 22.5 km/h 36 % 0 mm
15:39 21.5 °C 5.8 °C 1015.5 hPa South 16.3 km/h 25.9 km/h 36 % 0 mm
15:40 21.5 °C 5.8 °C 1015.5 hPa SSW 12.4 km/h 24.1 km/h 36 % 0 mm
15:43 21.6 °C 5.9 °C 1015.5 hPa SSW 14.3 km/h 22.2 km/h 36 % 0 mm
15:46 21.2 °C 5.6 °C 1015.5 hPa SSW 22.7 km/h 31.5 km/h 36 % 0 mm
15:47 21.2 °C 5.9 °C 1015.5 hPa SSW 19.8 km/h 27.8 km/h 37 % 0 mm
15:49 21.2 °C 5.9 °C 1015.8 hPa SSW 17.9 km/h 25.9 km/h 37 % 0 mm
15:50 21.2 °C 5.9 °C 1015.8 hPa South 16.7 km/h 22.2 km/h 37 % 0 mm
15:51 21.2 °C 5.9 °C 1015.8 hPa SSW 20.4 km/h 27.8 km/h 37 % 0 mm
15:52 21.2 °C 5.9 °C 1015.8 hPa SSW 10.8 km/h 24.1 km/h 37 % 0 mm
15:54 21.3 °C 6.1 °C 1015.8 hPa SSW 23 km/h 38.6 km/h 37 % 0 mm
15:56 21.3 °C 6 °C 1015.8 hPa SSW 28.3 km/h 42.6 km/h 37 % 0 mm
15:58 21 °C 5.7 °C 1015.5 hPa SSW 17.5 km/h 22.5 km/h 37 % 0 mm
15:59 21 °C 6.1 °C 1015.5 hPa SSW 19 km/h 25.9 km/h 38 % 0 mm
16:01 21.1 °C 5.8 °C 1015.5 hPa SSW 23.8 km/h 27.8 km/h 37 % 0 mm
16:05 21.2 °C 5.9 °C 1015.8 hPa SSE 15 km/h 24.1 km/h 37 % 0 mm
16:06 21.3 °C 6 °C 1015.5 hPa ESE 16.1 km/h 27.4 km/h 37 % 0 mm
16:07 21.3 °C 6 °C 1015.8 hPa South 18 km/h 29 km/h 37 % 0 mm
16:08 21.2 °C 5.5 °C 1015.8 hPa SSW 22.4 km/h 29.6 km/h 36 % 0 mm
16:09 21.1 °C 5.8 °C 1015.8 hPa SSW 20.8 km/h 31.5 km/h 37 % 0 mm
16:11 20.9 °C 6.1 °C 1015.5 hPa South 10.5 km/h 16.7 km/h 38 % 0 mm
16:12 21 °C 5.7 °C 1015.8 hPa SW 22.7 km/h 31.5 km/h 37 % 0 mm
16:13 21.1 °C 6.2 °C 1015.5 hPa SSW 25.9 km/h 37 km/h 38 % 0 mm
16:14 21.1 °C 5.8 °C 1015.8 hPa South 17.2 km/h 29.6 km/h 37 % 0 mm
16:16 21 °C 5.7 °C 1015.5 hPa SSW 18.2 km/h 25.9 km/h 37 % 0 mm
16:17 21 °C 5.7 °C 1015.5 hPa North 17.9 km/h 27.4 km/h 37 % 0 mm
16:18 21 °C 5.7 °C 1015.5 hPa SSW 20.6 km/h 31.5 km/h 37 % 0 mm
16:19 21 °C 5.7 °C 1015.5 hPa SSW 19.3 km/h 27.8 km/h 37 % 0 mm
16:20 21.1 °C 6.2 °C 1015.5 hPa SSW 11.9 km/h 14.8 km/h 38 % 0 mm
16:21 21.2 °C 6.3 °C 1015.5 hPa SSE 17.2 km/h 25.9 km/h 38 % 0 mm
16:24 21.4 °C 6.1 °C 1015.5 hPa SE 16.4 km/h 27.8 km/h 37 % 0 mm
16:26 21.4 °C 6.1 °C 1015.5 hPa SSW 20.9 km/h 31.5 km/h 37 % 0 mm
16:28 21.3 °C 6.1 °C 1015.5 hPa South 16.6 km/h 19.3 km/h 37 % 0 mm
16:29 21.3 °C 6 °C 1015.5 hPa South 18.3 km/h 29 km/h 37 % 0 mm
16:30 21.2 °C 6.3 °C 1015.5 hPa South 15.8 km/h 29.6 km/h 38 % 0 mm
16:31 21.2 °C 5.9 °C 1015.5 hPa South 11.4 km/h 20.4 km/h 37 % 0 mm
16:32 21.3 °C 6 °C 1015.5 hPa SSE 11.3 km/h 25.7 km/h 37 % 0 mm
16:34 21.2 °C 5.9 °C 1015.5 hPa SSW 16.7 km/h 19.3 km/h 37 % 0 mm
16:36 21.2 °C 5.9 °C 1015.5 hPa SSE 10.1 km/h 20.4 km/h 37 % 0 mm
16:37 21.2 °C 5.9 °C 1015.5 hPa South 9.7 km/h 20.9 km/h 37 % 0 mm
16:38 21.2 °C 6.3 °C 1015.8 hPa South 17.2 km/h 22.2 km/h 38 % 0 mm
16:39 21.2 °C 5.9 °C 1015.5 hPa SSE 16.3 km/h 24.1 km/h 37 % 0 mm
16:40 21.1 °C 5.8 °C 1015.5 hPa SSE 20.6 km/h 24.1 km/h 37 % 0 mm
16:41 21.2 °C 5.9 °C 1015.5 hPa SSW 21.2 km/h 29.6 km/h 37 % 0 mm
16:42 21.2 °C 6.3 °C 1015.5 hPa North 21.9 km/h 37 km/h 38 % 0 mm
16:44 21 °C 5.7 °C 1015.5 hPa SSW 21.7 km/h 27.8 km/h 37 % 0 mm
16:45 21 °C 6.1 °C 1015.5 hPa SSW 23 km/h 33.3 km/h 38 % 0 mm
16:46 20.9 °C 5.7 °C 1015.5 hPa South 21.1 km/h 33.3 km/h 37 % 0 mm
16:48 20.8 °C 5.6 °C 1015.5 hPa North 15.4 km/h 20.9 km/h 37 % 0 mm
16:49 20.8 °C 5.6 °C 1015.5 hPa SSW 17.9 km/h 24.1 km/h 37 % 0 mm
16:50 20.8 °C 5.6 °C 1015.5 hPa SSW 18.2 km/h 24.1 km/h 37 % 0 mm
16:51 20.8 °C 5.6 °C 1015.5 hPa South 19 km/h 31.5 km/h 37 % 0 mm
16:53 20.8 °C 5.6 °C 1015.5 hPa South 13.2 km/h 17.7 km/h 37 % 0 mm
16:54 20.9 °C 6.1 °C 1015.5 hPa SSW 17.2 km/h 20.4 km/h 38 % 0 mm
16:55 20.9 °C 6.1 °C 1015.5 hPa SSW 18.5 km/h 35.2 km/h 38 % 0 mm
16:56 20.9 °C 5.7 °C 1015.5 hPa SW 24.1 km/h 35.2 km/h 37 % 0 mm
16:57 20.9 °C 5.3 °C 1015.5 hPa SSW 18 km/h 31.5 km/h 36 % 0 mm
16:58 20.9 °C 5.7 °C 1015.5 hPa SSW 16.6 km/h 24.1 km/h 37 % 0 mm
16:59 20.9 °C 5.7 °C 1015.5 hPa SW 18.8 km/h 24.1 km/h 37 % 0 mm
17:01 20.9 °C 5.3 °C 1015.5 hPa SSW 16.4 km/h 25.7 km/h 36 % 0 mm
17:02 21 °C 5.3 °C 1015.5 hPa South 19.2 km/h 25.9 km/h 36 % 0 mm
17:03 20.9 °C 5.3 °C 1015.5 hPa SSE 11.9 km/h 24.1 km/h 36 % 0 mm
17:04 21 °C 5.7 °C 1015.5 hPa SSE 15.3 km/h 22.2 km/h 37 % 0 mm
17:06 21.1 °C 5 °C 1015.5 hPa SW 16.3 km/h 25.9 km/h 35 % 0 mm
17:08 21 °C 4.9 °C 1015.5 hPa SW 20 km/h 27.8 km/h 35 % 0 mm
17:12 21.1 °C 5.1 °C 1015.5 hPa SSW 17.5 km/h 22.2 km/h 35 % 0 mm
17:13 21.1 °C 5.1 °C 1015.5 hPa South 13.4 km/h 24.1 km/h 35 % 0 mm
17:14 21.1 °C 5 °C 1015.5 hPa SSW 15 km/h 22.2 km/h 35 % 0 mm
17:15 21.1 °C 5 °C 1015.5 hPa SSW 11.7 km/h 22.2 km/h 35 % 0 mm
17:18 21.1 °C 5 °C 1015.8 hPa South 18.3 km/h 30.6 km/h 35 % 0 mm
17:22 20.8 °C 4.7 °C 1015.8 hPa SSW 21.9 km/h 31.5 km/h 35 % 0 mm
17:23 20.8 °C 4.7 °C 1015.8 hPa North 16.3 km/h 22.2 km/h 35 % 0 mm
17:24 20.7 °C 4.7 °C 1015.8 hPa SW 14.3 km/h 19.3 km/h 35 % 0 mm
17:25 20.7 °C 4.7 °C 1015.8 hPa North 15.3 km/h 18.5 km/h 35 % 0 mm
17:26 20.8 °C 4.7 °C 1015.8 hPa SSW 13.2 km/h 16.7 km/h 35 % 0 mm
17:27 20.8 °C 5.2 °C 1015.8 hPa South 15.6 km/h 25.9 km/h 36 % 0 mm
17:28 20.9 °C 5.3 °C 1015.8 hPa South 21.1 km/h 25.9 km/h 36 % 0 mm
17:30 20.9 °C 5.7 °C 1015.8 hPa SSW 13.8 km/h 25.9 km/h 37 % 0 mm
17:31 20.9 °C 5.7 °C 1015.5 hPa SSW 13.8 km/h 25.9 km/h 37 % 0 mm
17:33 20.8 °C 5.6 °C 1015.8 hPa South 13.8 km/h 24.1 km/h 37 % 0 mm
17:34 20.8 °C 5.6 °C 1015.8 hPa South 20.9 km/h 24.1 km/h 37 % 0 mm
17:35 20.8 °C 5.6 °C 1015.8 hPa South 17.9 km/h 31.5 km/h 37 % 0 mm
17:36 20.8 °C 5.6 °C 1015.8 hPa South 22.9 km/h 27.8 km/h 37 % 0 mm
17:37 20.8 °C 5.6 °C 1015.8 hPa South 18.5 km/h 31.5 km/h 37 % 0 mm
17:39 20.8 °C 5.9 °C 1015.8 hPa SSE 15.1 km/h 25.9 km/h 38 % 0 mm
17:42 20.7 °C 5.9 °C 1015.5 hPa South 6.9 km/h 18.5 km/h 38 % 0 mm
17:43 20.7 °C 5.9 °C 1015.8 hPa SSE 17.5 km/h 29.6 km/h 38 % 0 mm
17:44 20.8 °C 5.9 °C 1015.8 hPa South 19.3 km/h 31.5 km/h 38 % 0 mm
17:45 20.8 °C 5.9 °C 1015.8 hPa South 20 km/h 31.5 km/h 38 % 0 mm
17:47 20.6 °C 5.3 °C 1015.8 hPa South 18.5 km/h 31.5 km/h 37 % 0 mm
17:48 20.5 °C 5.7 °C 1015.8 hPa SSW 23.7 km/h 33.3 km/h 38 % 0 mm
17:49 20.4 °C 5.3 °C 1015.8 hPa South 22.5 km/h 33.3 km/h 37 % 0 mm
17:50 20.4 °C 5.3 °C 1015.8 hPa South 17.2 km/h 24.1 km/h 37 % 0 mm
17:51 20.4 °C 5.2 °C 1015.5 hPa South 16.6 km/h 24.1 km/h 37 % 0 mm
17:54 20.4 °C 5.6 °C 1015.5 hPa SW 17.2 km/h 24.1 km/h 38 % 0 mm
17:55 20.4 °C 5.6 °C 1015.5 hPa South 13.8 km/h 22.2 km/h 38 % 0 mm
17:56 20.5 °C 5.3 °C 1015.8 hPa SSW 15.8 km/h 22.5 km/h 37 % 0 mm
18:00 20.5 °C 5.7 °C 1015.8 hPa SSW 17.9 km/h 27.8 km/h 38 % 0 mm
18:02 20.5 °C 5.7 °C 1015.5 hPa SSW 15.6 km/h 29.6 km/h 38 % 0 mm
18:03 20.5 °C 5.7 °C 1015.8 hPa North 19.5 km/h 31.5 km/h 38 % 0 mm
18:05 20.6 °C 5.8 °C 1015.8 hPa South 14.2 km/h 20.4 km/h 38 % 0 mm
18:06 20.7 °C 5.4 °C 1015.8 hPa SE 14 km/h 22.2 km/h 37 % 0 mm
18:08 20.6 °C 5.4 °C 1015.8 hPa SSW 21.4 km/h 24.1 km/h 37 % 0 mm
18:09 20.6 °C 5.3 °C 1015.8 hPa SSE 20.6 km/h 31.5 km/h 37 % 0 mm
18:10 20.6 °C 5.3 °C 1015.8 hPa South 14.8 km/h 22.2 km/h 37 % 0 mm
18:11 20.4 °C 5.2 °C 1015.8 hPa SSW 16.4 km/h 25.9 km/h 37 % 0 mm
18:12 20.3 °C 5.2 °C 1015.8 hPa SSW 23.2 km/h 32.2 km/h 37 % 0 mm
18:16 20.2 °C 5.4 °C 1015.8 hPa SSE 13 km/h 27.8 km/h 38 % 0 mm
18:17 20.2 °C 5.4 °C 1015.8 hPa South 13.5 km/h 24.1 km/h 38 % 0 mm
18:18 20.2 °C 5.8 °C 1015.8 hPa SSW 14.8 km/h 27.4 km/h 39 % 0 mm
18:22 20.3 °C 5.9 °C 1015.8 hPa South 12.7 km/h 18.5 km/h 39 % 0 mm
18:23 20.3 °C 5.9 °C 1015.8 hPa South 16.3 km/h 25.9 km/h 39 % 0 mm
18:26 20.3 °C 5.9 °C 1015.8 hPa SSW 17.1 km/h 24.1 km/h 39 % 0 mm
18:27 20.3 °C 5.5 °C 1015.8 hPa SSW 15 km/h 22.2 km/h 38 % 0 mm
18:29 20.2 °C 5.8 °C 1015.8 hPa SSE 15.6 km/h 27.8 km/h 39 % 0 mm
18:30 20.2 °C 5.8 °C 1015.8 hPa SSE 13 km/h 20.4 km/h 39 % 0 mm
18:31 20.2 °C 6.2 °C 1015.8 hPa SSE 11.7 km/h 18.5 km/h 40 % 0 mm
18:32 20.2 °C 5.8 °C 1015.8 hPa SSE 19 km/h 25.7 km/h 39 % 0 mm
18:34 20.2 °C 5.8 °C 1015.8 hPa South 20 km/h 38.9 km/h 39 % 0 mm
18:35 20.1 °C 5.7 °C 1015.8 hPa SSW 18.7 km/h 38.9 km/h 39 % 0 mm
18:36 20.1 °C 5.7 °C 1015.8 hPa SSW 14.2 km/h 25.9 km/h 39 % 0 mm
18:37 20.1 °C 5.7 °C 1015.8 hPa South 16.1 km/h 20.4 km/h 39 % 0 mm
18:38 20 °C 5.6 °C 1015.8 hPa South 18 km/h 27.8 km/h 39 % 0 mm
18:39 19.9 °C 5.6 °C 1015.8 hPa South 15.4 km/h 24.1 km/h 39 % 0 mm
18:40 19.9 °C 5.5 °C 1015.8 hPa SSW 19 km/h 27.8 km/h 39 % 0 mm
18:42 19.8 °C 5.4 °C 1015.8 hPa SSW 16.3 km/h 38.9 km/h 39 % 0 mm
18:43 19.8 °C 5.4 °C 1015.8 hPa South 12.1 km/h 29.6 km/h 39 % 0 mm
18:44 19.8 °C 5.8 °C 1015.8 hPa South 18 km/h 24.1 km/h 40 % 0 mm
18:45 19.8 °C 5.8 °C 1015.8 hPa SSE 19.5 km/h 29.6 km/h 40 % 0 mm
18:46 19.8 °C 5.8 °C 1015.8 hPa South 16.6 km/h 27.8 km/h 40 % 0 mm
18:47 19.8 °C 5.8 °C 1015.8 hPa South 15 km/h 27.8 km/h 40 % 0 mm
18:50 19.8 °C 5.8 °C 1015.8 hPa SSW 20.4 km/h 25.9 km/h 40 % 0 mm
18:53 19.7 °C 6.1 °C 1015.8 hPa SSE 18.5 km/h 27.8 km/h 41 % 0 mm
18:54 19.7 °C 6.4 °C 1015.8 hPa South 14.3 km/h 25.9 km/h 42 % 0 mm
18:55 19.7 °C 6.4 °C 1015.8 hPa SE 12.4 km/h 20.4 km/h 42 % 0 mm
18:56 19.7 °C 6.4 °C 1015.8 hPa South 14.6 km/h 19.3 km/h 42 % 0 mm
18:57 19.7 °C 6.1 °C 1015.8 hPa South 16.7 km/h 22.2 km/h 41 % 0 mm
18:59 19.7 °C 6.1 °C 1016.1 hPa SSW 22 km/h 37 km/h 41 % 0 mm
19:00 19.6 °C 6.3 °C 1016.1 hPa South 18.8 km/h 29.6 km/h 42 % 0 mm
19:01 19.5 °C 6.2 °C 1016.1 hPa South 17.9 km/h 29.6 km/h 42 % 0 mm
19:05 19.4 °C 6.1 °C 1016.1 hPa South 13.8 km/h 18.5 km/h 42 % 0 mm
19:06 19.4 °C 6.1 °C 1016.1 hPa SSE 12.9 km/h 19.3 km/h 42 % 0 mm
19:10 19.3 °C 6.1 °C 1016.1 hPa South 17.5 km/h 31.5 km/h 42 % 0 mm
19:11 19.3 °C 6.4 °C 1016.1 hPa South 10.6 km/h 22.2 km/h 43 % 0 mm
19:12 19.3 °C 6.4 °C 1016.1 hPa SSE 14.5 km/h 27.8 km/h 43 % 0 mm
19:13 19.3 °C 6.4 °C 1016.1 hPa SSE 16.3 km/h 27.4 km/h 43 % 0 mm
19:14 19.2 °C 6.3 °C 1016.1 hPa South 15.8 km/h 27.8 km/h 43 % 0 mm
19:15 19.2 °C 6.3 °C 1016.1 hPa SW 15.9 km/h 22.2 km/h 43 % 0 mm
19:16 19.2 °C 6.3 °C 1016.1 hPa South 17.1 km/h 29.6 km/h 43 % 0 mm
19:17 19.2 °C 6.3 °C 1016.1 hPa SSE 13 km/h 24.1 km/h 43 % 0 mm
19:18 19.2 °C 6.3 °C 1016.1 hPa South 21.9 km/h 31.5 km/h 43 % 0 mm
19:19 19.1 °C 6.2 °C 1016.1 hPa South 23.3 km/h 31.5 km/h 43 % 0 mm
19:20 19.1 °C 6.5 °C 1016.1 hPa SSE 14.2 km/h 29.6 km/h 44 % 0 mm
19:21 19.1 °C 6.5 °C 1016.1 hPa South 14.8 km/h 22.2 km/h 44 % 0 mm
19:22 19.1 °C 6.6 °C 1016.1 hPa SSE 13.5 km/h 14.5 km/h 44 % 0 mm
19:23 19.1 °C 6.6 °C 1016.1 hPa South 15.4 km/h 22.2 km/h 44 % 0 mm
19:26 19.1 °C 6.5 °C 1016.1 hPa South 14 km/h 20.4 km/h 44 % 0 mm
19:27 19 °C 6.4 °C 1016.1 hPa South 13.2 km/h 24.1 km/h 44 % 0 mm
19:30 18.9 °C 6.4 °C 1016.5 hPa South 10.3 km/h 27.8 km/h 44 % 0 mm
19:31 18.9 °C 6.4 °C 1016.5 hPa South 10.5 km/h 27.8 km/h 44 % 0 mm
19:32 18.8 °C 6.3 °C 1016.5 hPa SSW 16.1 km/h 27.8 km/h 44 % 0 mm
19:33 18.8 °C 6.6 °C 1016.5 hPa SSE 12.4 km/h 18.5 km/h 45 % 0 mm
19:34 18.8 °C 6.6 °C 1016.5 hPa South 12.9 km/h 24.1 km/h 45 % 0 mm
19:36 18.7 °C 6.5 °C 1016.5 hPa SE 20.3 km/h 27.8 km/h 45 % 0 mm
19:37 18.6 °C 6.4 °C 1016.5 hPa SSE 20.6 km/h 31.5 km/h 45 % 0 mm
19:38 18.6 °C 6.4 °C 1016.5 hPa South 19.5 km/h 31.5 km/h 45 % 0 mm
19:42 18.5 °C 6.3 °C 1016.5 hPa North 11.4 km/h 18.5 km/h 45 % 0 mm
19:43 18.5 °C 6.3 °C 1016.5 hPa SSE 17.4 km/h 22.2 km/h 45 % 0 mm
19:46 18.5 °C 6.3 °C 1016.5 hPa SSW 16.3 km/h 25.9 km/h 45 % 0 mm
19:48 18.4 °C 6.3 °C 1016.5 hPa South 12.6 km/h 22.2 km/h 45 % 0 mm
19:49 18.4 °C 6.3 °C 1016.5 hPa SSE 16.6 km/h 20.4 km/h 45 % 0 mm
19:50 18.3 °C 6.2 °C 1016.5 hPa South 13.7 km/h 24.1 km/h 45 % 0 mm
19:52 18.3 °C 6.1 °C 1016.5 hPa SSW 18.5 km/h 31.5 km/h 45 % 0 mm
19:53 18.2 °C 6.1 °C 1016.5 hPa SSW 21.6 km/h 35.2 km/h 45 % 0 mm
19:54 18.2 °C 6.1 °C 1016.5 hPa South 15.9 km/h 35.2 km/h 45 % 0 mm
19:55 18.2 °C 6.1 °C 1016.5 hPa SSW 15.8 km/h 22.2 km/h 45 % 0 mm
19:56 18.1 °C 5.9 °C 1016.5 hPa South 15 km/h 22.2 km/h 45 % 0 mm
19:58 18.1 °C 6.3 °C 1016.5 hPa North 11.3 km/h 16.7 km/h 46 % 0 mm
19:59 18 °C 6.2 °C 1016.8 hPa South 13.4 km/h 18.5 km/h 46 % 0 mm
20:00 18 °C 6.2 °C 1016.5 hPa South 16.4 km/h 24.1 km/h 46 % 0 mm
20:01 18 °C 6.2 °C 1016.8 hPa South 18 km/h 24.1 km/h 46 % 0 mm
20:02 17.9 °C 6.2 °C 1016.8 hPa South 14.8 km/h 25.9 km/h 46 % 0 mm
20:03 17.9 °C 6.1 °C 1016.8 hPa South 20.9 km/h 31.5 km/h 46 % 0 mm
20:04 17.8 °C 6.1 °C 1016.8 hPa South 12.6 km/h 24.1 km/h 46 % 0 mm
20:07 17.7 °C 5.9 °C 1016.8 hPa SSE 8 km/h 18.5 km/h 46 % 0 mm
20:08 17.7 °C 5.9 °C 1016.8 hPa South 15.8 km/h 18.5 km/h 46 % 0 mm
20:09 17.7 °C 5.9 °C 1016.8 hPa South 15.4 km/h 18.5 km/h 46 % 0 mm
20:10 17.6 °C 5.8 °C 1016.8 hPa South 12.4 km/h 20.4 km/h 46 % 0 mm
20:11 17.6 °C 5.8 °C 1016.8 hPa South 8.5 km/h 14.8 km/h 46 % 0 mm
20:12 17.6 °C 5.8 °C 1016.8 hPa North 10 km/h 18.5 km/h 46 % 0 mm
20:13 17.6 °C 5.8 °C 1016.8 hPa South 8.4 km/h 18.5 km/h 46 % 0 mm
20:15 17.6 °C 5.5 °C 1016.8 hPa South 8.4 km/h 18.5 km/h 45 % 0 mm
20:18 17.4 °C 5.4 °C 1016.8 hPa South 15.4 km/h 24.1 km/h 45 % 0 mm
20:19 17.4 °C 5.3 °C 1016.8 hPa SSW 15.6 km/h 27.8 km/h 45 % 0 mm
20:20 17.3 °C 5.3 °C 1016.8 hPa SSW 17.1 km/h 32.2 km/h 45 % 0 mm
20:21 17.3 °C 5.6 °C 1016.8 hPa South 15 km/h 31.5 km/h 46 % 0 mm
20:22 17.2 °C 5.5 °C 1016.8 hPa South 16.6 km/h 27.8 km/h 46 % 0 mm
20:24 17.1 °C 5.4 °C 1016.8 hPa South 18.3 km/h 24.1 km/h 46 % 0 mm
20:25 17.1 °C 5.4 °C 1016.8 hPa South 14.3 km/h 22.2 km/h 46 % 0 mm
20:27 17.1 °C 5.3 °C 1016.8 hPa South 14.5 km/h 31.5 km/h 46 % 0 mm
20:30 17 °C 5.6 °C 1016.8 hPa SSE 7.1 km/h 17.7 km/h 47 % 0 mm
20:35 16.8 °C 5.4 °C 1016.8 hPa South 15.1 km/h 24.1 km/h 47 % 0 mm
20:36 16.7 °C 5.3 °C 1017.2 hPa South 13.4 km/h 20.4 km/h 47 % 0 mm
20:37 16.7 °C 5.3 °C 1017.2 hPa South 13.5 km/h 20.4 km/h 47 % 0 mm
20:39 16.7 °C 5.6 °C 1017.2 hPa South 10.6 km/h 18.5 km/h 48 % 0 mm
20:40 16.6 °C 5.5 °C 1017.2 hPa South 9.5 km/h 16.7 km/h 48 % 0 mm
20:41 16.6 °C 5.8 °C 1017.2 hPa SSE 10.9 km/h 14.8 km/h 49 % 0 mm
20:42 16.5 °C 5.7 °C 1017.2 hPa SSW 13.5 km/h 14.8 km/h 49 % 0 mm
20:44 16.4 °C 6 °C 1017.2 hPa SSE 17.2 km/h 24.1 km/h 50 % 0 mm
20:46 16.3 °C 6.2 °C 1017.2 hPa South 11.6 km/h 14.8 km/h 51 % 0 mm
20:48 16.3 °C 6.1 °C 1017.2 hPa South 17.1 km/h 20.4 km/h 51 % 0 mm
20:49 16.2 °C 6.3 °C 1017.2 hPa South 12.1 km/h 16.7 km/h 52 % 0 mm
20:50 16.2 °C 6.3 °C 1017.2 hPa South 9.3 km/h 20.4 km/h 52 % 0 mm
20:52 16.2 °C 6.3 °C 1017.2 hPa SSE 8.7 km/h 20.4 km/h 52 % 0 mm
20:54 16.1 °C 6.2 °C 1017.2 hPa South 6.9 km/h 18.5 km/h 52 % 0 mm
20:55 16 °C 6.4 °C 1017.2 hPa South 7.7 km/h 9.3 km/h 53 % 0 mm
20:56 16 °C 6.4 °C 1017.2 hPa South 7.7 km/h 9.7 km/h 53 % 0 mm
20:57 16 °C 6.4 °C 1017.2 hPa South 8.2 km/h 20.9 km/h 53 % 0 mm
20:58 15.9 °C 6.3 °C 1017.2 hPa South 12.6 km/h 18.5 km/h 53 % 0 mm
21:00 15.8 °C 6.6 °C 1017.2 hPa South 12.6 km/h 18.5 km/h 54 % 0 mm
21:01 15.8 °C 6.6 °C 1017.5 hPa South 9.7 km/h 16.7 km/h 54 % 0 mm
21:02 15.8 °C 6.5 °C 1017.5 hPa SSE 9.5 km/h 16.7 km/h 54 % 0 mm
21:03 15.7 °C 6.4 °C 1017.2 hPa South 8.5 km/h 16.1 km/h 54 % 0 mm
21:05 15.7 °C 6.4 °C 1017.5 hPa South 9.7 km/h 14.8 km/h 54 % 0 mm
21:06 15.7 °C 6.7 °C 1017.5 hPa South 9 km/h 13 km/h 55 % 0 mm
21:07 15.6 °C 6.6 °C 1017.5 hPa South 8.4 km/h 11.1 km/h 55 % 0 mm
21:08 15.6 °C 6.6 °C 1017.2 hPa South 10.1 km/h 16.1 km/h 55 % 0 mm
21:11 15.5 °C 6.8 °C 1017.5 hPa South 11.4 km/h 16.7 km/h 56 % 0 mm
21:12 15.4 °C 6.7 °C 1017.5 hPa South 12.4 km/h 18.5 km/h 56 % 0 mm
21:13 15.4 °C 6.7 °C 1017.5 hPa South 10.3 km/h 16.7 km/h 56 % 0 mm
21:14 15.4 °C 6.7 °C 1017.5 hPa South 9 km/h 14.8 km/h 56 % 0 mm
21:15 15.3 °C 6.6 °C 1017.5 hPa South 6.8 km/h 11.1 km/h 56 % 0 mm
21:17 15.3 °C 6.6 °C 1017.5 hPa South 9.5 km/h 14.8 km/h 56 % 0 mm
21:18 15.2 °C 6.5 °C 1017.5 hPa South 9 km/h 13 km/h 56 % 0 mm
21:19 15.2 °C 6.5 °C 1017.5 hPa South 7.9 km/h 16.7 km/h 56 % 0 mm
21:20 15.2 °C 6.7 °C 1017.8 hPa South 8.4 km/h 11.3 km/h 57 % 0 mm
21:23 15.1 °C 6.7 °C 1017.8 hPa South 5.3 km/h 9.7 km/h 57 % 0 mm
21:27 15 °C 6.6 °C 1017.8 hPa North 4.2 km/h 11.1 km/h 57 % 0 mm
21:28 14.9 °C 6.7 °C 1017.8 hPa South 10.3 km/h 13 km/h 58 % 0 mm
21:29 14.9 °C 6.7 °C 1017.8 hPa South 9.8 km/h 13 km/h 58 % 0 mm
21:30 14.9 °C 6.7 °C 1017.8 hPa South 10.5 km/h 13 km/h 58 % 0 mm
21:31 14.8 °C 6.7 °C 1017.8 hPa North 9.5 km/h 14.8 km/h 58 % 0 mm
21:32 14.8 °C 6.8 °C 1017.8 hPa South 8.7 km/h 13 km/h 59 % 0 mm
21:34 14.7 °C 6.8 °C 1017.8 hPa South 9.2 km/h 14.5 km/h 59 % 0 mm
21:35 14.7 °C 6.8 °C 1017.8 hPa South 11.7 km/h 14.8 km/h 59 % 0 mm
21:36 14.7 °C 6.7 °C 1017.5 hPa South 11.6 km/h 20.4 km/h 59 % 0 mm
21:37 14.7 °C 7 °C 1017.8 hPa South 10.6 km/h 16.7 km/h 60 % 0 mm
21:38 14.6 °C 6.9 °C 1017.8 hPa South 13.2 km/h 18.5 km/h 60 % 0 mm
21:39 14.6 °C 6.9 °C 1017.8 hPa SSE 12.4 km/h 18.5 km/h 60 % 0 mm
21:40 14.6 °C 6.9 °C 1017.8 hPa SSE 11.1 km/h 18.5 km/h 60 % 0 mm
21:41 14.6 °C 6.9 °C 1017.8 hPa South 11.7 km/h 16.7 km/h 60 % 0 mm
21:44 14.5 °C 7.1 °C 1017.8 hPa North 6.1 km/h 18.5 km/h 61 % 0 mm
21:45 14.4 °C 7.2 °C 1017.8 hPa South 13.2 km/h 16.1 km/h 62 % 0 mm
21:46 14.4 °C 7.2 °C 1017.8 hPa SSW 13.7 km/h 17.7 km/h 62 % 0 mm
21:48 14.4 °C 7.2 °C 1017.8 hPa South 9.3 km/h 17.7 km/h 62 % 0 mm
21:49 14.4 °C 7.2 °C 1017.8 hPa North 8.4 km/h 18.5 km/h 62 % 0 mm
21:50 14.3 °C 7.2 °C 1017.8 hPa North 11.1 km/h 17.7 km/h 62 % 0 mm
21:51 14.3 °C 7.3 °C 1017.8 hPa South 11.9 km/h 16.7 km/h 63 % 0 mm
21:52 14.3 °C 7.3 °C 1017.8 hPa South 13.5 km/h 18.5 km/h 63 % 0 mm
21:53 14.2 °C 7.3 °C 1017.8 hPa North 10.5 km/h 18.5 km/h 63 % 0 mm
21:54 14.2 °C 7.3 °C 1017.8 hPa South 12.2 km/h 18.5 km/h 63 % 0 mm
21:56 14.2 °C 7.4 °C 1017.8 hPa South 14.5 km/h 18.5 km/h 64 % 0 mm
21:58 14.1 °C 7.4 °C 1017.8 hPa South 6.1 km/h 13 km/h 64 % 0 mm
22:00 14.1 °C 7.6 °C 1017.8 hPa South 13.7 km/h 14.5 km/h 65 % 0 mm
22:01 14.1 °C 7.6 °C 1017.8 hPa North 8.7 km/h 16.7 km/h 65 % 0 mm
22:05 13.9 °C 7.7 °C 1017.8 hPa North 8.5 km/h 18.5 km/h 66 % 0 mm
22:06 13.9 °C 7.7 °C 1017.8 hPa SSE 11.4 km/h 17.7 km/h 66 % 0 mm
22:09 13.8 °C 7.6 °C 1017.8 hPa South 8.5 km/h 14.8 km/h 66 % 0 mm
22:10 13.8 °C 7.6 °C 1017.8 hPa South 8 km/h 12.9 km/h 66 % 0 mm
22:11 13.8 °C 7.8 °C 1017.8 hPa SSE 8.7 km/h 14.8 km/h 67 % 0 mm
22:13 13.7 °C 7.7 °C 1017.8 hPa South 8 km/h 11.1 km/h 67 % 0 mm
22:16 13.7 °C 7.7 °C 1018.2 hPa South 6.4 km/h 14.5 km/h 67 % 0 mm
22:17 13.6 °C 7.6 °C 1018.2 hPa SSE 9.3 km/h 11.1 km/h 67 % 0 mm
22:18 13.6 °C 7.8 °C 1018.2 hPa SSE 7.2 km/h 14.8 km/h 68 % 0 mm
22:23 13.4 °C 7.6 °C 1018.2 hPa SSE 11.3 km/h 18.5 km/h 68 % 0 mm
22:24 13.3 °C 7.6 °C 1018.2 hPa SSE 9.2 km/h 11.3 km/h 68 % 0 mm
22:25 13.3 °C 7.7 °C 1018.2 hPa SSE 5.5 km/h 13 km/h 69 % 0 mm
22:26 13.3 °C 7.7 °C 1018.2 hPa SSE 6.4 km/h 11.3 km/h 69 % 0 mm
22:28 13.2 °C 7.7 °C 1018.2 hPa SSE 6.6 km/h 13 km/h 69 % 0 mm
22:30 13.2 °C 7.6 °C 1018.2 hPa South 8.2 km/h 9.7 km/h 69 % 0 mm
22:31 13.1 °C 7.6 °C 1018.2 hPa South 6.8 km/h 9.3 km/h 69 % 0 mm
22:32 13.1 °C 7.6 °C 1018.2 hPa South 6.3 km/h 9.3 km/h 69 % 0 mm
22:33 13.1 °C 7.6 °C 1018.2 hPa South 6.9 km/h 13 km/h 69 % 0 mm
22:34 13.1 °C 7.5 °C 1018.2 hPa South 2.7 km/h 11.3 km/h 69 % 0 mm
22:37 12.9 °C 7.6 °C 1018.2 hPa South 7.7 km/h 11.1 km/h 70 % 0 mm
22:38 12.9 °C 7.6 °C 1018.2 hPa South 6.4 km/h 13 km/h 70 % 0 mm
22:39 12.9 °C 7.6 °C 1018.2 hPa South 6.8 km/h 13 km/h 70 % 0 mm
22:40 12.8 °C 7.5 °C 1018.2 hPa South 7.4 km/h 11.1 km/h 70 % 0 mm
22:41 12.8 °C 7.5 °C 1018.2 hPa South 6.1 km/h 9.3 km/h 70 % 0 mm
22:42 12.8 °C 7.7 °C 1018.2 hPa South 8.2 km/h 13 km/h 71 % 0 mm
22:43 12.8 °C 7.7 °C 1018.2 hPa North 7.9 km/h 13 km/h 71 % 0 mm
22:44 12.7 °C 7.6 °C 1018.2 hPa South 8 km/h 8 km/h 71 % 0 mm
22:45 12.7 °C 7.6 °C 1018.2 hPa South 8.9 km/h 14.8 km/h 71 % 0 mm
22:46 12.7 °C 7.6 °C 1018.2 hPa South 8.7 km/h 14.8 km/h 71 % 0 mm
22:48 12.6 °C 7.5 °C 1018.2 hPa North 7.1 km/h 14.8 km/h 71 % 0 mm
22:50 12.6 °C 7.5 °C 1018.2 hPa North 9.3 km/h 13 km/h 71 % 0 mm
22:51 12.6 °C 7.5 °C 1018.2 hPa North 8.7 km/h 13 km/h 71 % 0 mm
22:54 12.5 °C 7.4 °C 1018.2 hPa South 7.6 km/h 9.7 km/h 71 % 0 mm
22:55 12.5 °C 7.4 °C 1018.2 hPa South 7.9 km/h 11.3 km/h 71 % 0 mm
22:56 12.5 °C 7.6 °C 1018.2 hPa South 6.8 km/h 11.3 km/h 72 % 0 mm
22:58 12.4 °C 7.3 °C 1018.2 hPa North 10.1 km/h 13 km/h 71 % 0 mm
22:59 12.4 °C 7.3 °C 1018.5 hPa South 7.7 km/h 13 km/h 71 % 0 mm
23:00 12.4 °C 7.5 °C 1018.5 hPa South 6.3 km/h 9.7 km/h 72 % 0 mm
23:01 12.4 °C 7.5 °C 1018.5 hPa North 7.6 km/h 11.1 km/h 72 % 0 mm
23:02 12.4 °C 7.5 °C 1018.5 hPa South 5.5 km/h 8 km/h 72 % 0 mm
23:03 12.3 °C 7.4 °C 1018.5 hPa North 4.8 km/h 9.3 km/h 72 % 0 mm
23:04 12.3 °C 7.4 °C 1018.5 hPa South 2.9 km/h 7.4 km/h 72 % 0 mm
23:06 12.3 °C 7.4 °C 1018.5 hPa North 4.5 km/h 7.4 km/h 72 % 0 mm
23:07 12.3 °C 7.4 °C 1018.5 hPa North 6.1 km/h 7.4 km/h 72 % 0 mm
23:08 12.3 °C 7.4 °C 1018.5 hPa South 5.6 km/h 11.1 km/h 72 % 0 mm
23:09 12.3 °C 7.4 °C 1018.5 hPa North 6.4 km/h 11.1 km/h 72 % 0 mm
23:13 12.2 °C 7.3 °C 1018.5 hPa North 7.6 km/h 9.3 km/h 72 % 0 mm
23:18 12.1 °C 7.3 °C 1018.5 hPa South 6.6 km/h 9.3 km/h 73 % 0 mm
23:19 12 °C 7.3 °C 1018.5 hPa North 5 km/h 9.3 km/h 73 % 0 mm
23:20 12 °C 7.3 °C 1018.5 hPa South 3.9 km/h 9.3 km/h 73 % 0 mm
23:22 11.9 °C 7.3 °C 1018.5 hPa South 3.2 km/h 9.3 km/h 73 % 0 mm
23:23 11.9 °C 7.3 °C 1018.5 hPa North 6.1 km/h 13 km/h 73 % 0 mm
23:25 11.9 °C 7.2 °C 1018.5 hPa South 6.9 km/h 11.1 km/h 73 % 0 mm
23:26 11.9 °C 7.4 °C 1018.5 hPa South 5.3 km/h 8 km/h 74 % 0 mm
23:28 11.9 °C 7.4 °C 1018.5 hPa South 7.4 km/h 9.3 km/h 74 % 0 mm
23:29 11.9 °C 7.4 °C 1018.5 hPa North 6.1 km/h 11.3 km/h 74 % 0 mm
23:30 11.9 °C 7.4 °C 1018.5 hPa North 6.3 km/h 11.1 km/h 74 % 0 mm
23:31 11.9 °C 7.4 °C 1018.5 hPa North 4.2 km/h 9.3 km/h 74 % 0 mm
23:33 11.8 °C 7.3 °C 1018.8 hPa North 5.1 km/h 5.6 km/h 74 % 0 mm
23:35 11.8 °C 7.3 °C 1018.5 hPa South 4.3 km/h 9.7 km/h 74 % 0 mm
23:36 11.8 °C 7.3 °C 1018.5 hPa North 6.6 km/h 9.3 km/h 74 % 0 mm
23:38 11.8 °C 7.3 °C 1018.5 hPa North 3.7 km/h 5.6 km/h 74 % 0 mm
23:39 11.8 °C 7.3 °C 1018.5 hPa North 2.7 km/h 5.6 km/h 74 % 0 mm
23:40 11.8 °C 7.3 °C 1018.5 hPa South 6.4 km/h 7.4 km/h 74 % 0 mm
23:41 11.8 °C 7.3 °C 1018.5 hPa South 7.1 km/h 11.1 km/h 74 % 0 mm
23:42 11.7 °C 7.2 °C 1018.5 hPa South 5 km/h 9.3 km/h 74 % 0 mm
23:44 11.7 °C 7.2 °C 1018.5 hPa South 6.8 km/h 9.3 km/h 74 % 0 mm
23:45 11.7 °C 7.2 °C 1018.5 hPa South 5.8 km/h 9.3 km/h 74 % 0 mm
23:46 11.7 °C 7.4 °C 1018.5 hPa South 6.9 km/h 9.3 km/h 75 % 0 mm
23:47 11.7 °C 7.4 °C 1018.5 hPa North 6.6 km/h 9.7 km/h 75 % 0 mm
23:53 11.6 °C 7.3 °C 1018.5 hPa North 6.4 km/h 11.1 km/h 75 % 0 mm
23:54 11.5 °C 7.2 °C 1018.5 hPa South 6 km/h 8 km/h 75 % 0 mm
23:56 11.4 °C 7.2 °C 1018.5 hPa South 6.6 km/h 11.3 km/h 75 % 0 mm
23:57 11.4 °C 7.1 °C 1018.5 hPa South 7.7 km/h 11.3 km/h 75 % 0 mm
23:58 11.4 °C 7.1 °C 1018.5 hPa South 7.6 km/h 11.1 km/h 75 % 0 mm
23:59 11.4 °C 7.3 °C 1018.5 hPa South 5 km/h 7.4 km/h 76 % 0 mm
Ararat Weather
Compliments of Weather Underground - 4.75 mb
Click here to send mail.


ABOUT

Live weather data from Ararat, Victoria, Australia, 3377
Data uploaded from Cumulus every 5 minutes to Weather Underground.
This site then downloads the raw data for formatting and display.
Metric and imperial data can be displayed. Graphs and historical data available.
Includes Sun and Moon times and rain image live from BOM.

Check out Ararat Weather on Facebook, Twitter and Google +

Help support ongoing costs by checking out the ads





Follow @AraratWeather